M I D A S
Marine Information and Data Acquisition System
Tripno 527 of the Zeeleeuw from 2003-06-30 06:33:44 to 2003-06-30 15:02:40
Back to CruiseResearch ActivitiesStationsMapUnderway DataData graphs

EquipmentUnitsComments
TimeDGPSUTC
LatitudeDGPSDM.mWGS84
LongitudeDGPSDM.mWGS84
SpeedMeteo Stationm/sRelative wind speed
DirectionMeteo StationdegRelative wind direction
TemperatureMeteo Stationdeg CelciusAir temperature
PressureMeteo StationPaAtmospheric pressure
HumidityMeteo Station%Relative humidity
Missing or incorrect values are displayed as -999
Metereological data collected by the RV Zeeleeuw from 2003-06-30 06:33:44 to 2003-06-30 15:02:40
                                                                                    Next 1000 lines
Time Latitude Longitude Speed Direction Temperature Pressure Humidity
2003-06-30 06:33:52 51°13.59 2°56.12 4.4 356 17.2 100430 82
2003-06-30 06:33:56 51°13.59 2°56.12 3.8 9 17.2 100430 82
2003-06-30 06:34:02 51°13.59 2°56.12 3.2 358 17.2 100430 82
2003-06-30 06:34:06 51°13.59 2°56.12 3.5 6 17.2 100430 82
2003-06-30 06:34:12 51°13.59 2°56.12 2 351 17.2 100430 82
2003-06-30 06:34:16 51°13.59 2°56.12 2.3 354 17.2 100430 82
2003-06-30 06:34:22 51°13.59 2°56.12 3.5 317 17.2 100430 82
2003-06-30 06:34:28 51°13.59 2°56.12 4.1 349 17.2 100430 82
2003-06-30 06:34:32 51°13.59 2°56.12 2.8 6 17.2 100430 82
2003-06-30 06:34:36 51°13.59 2°56.12 3.4 13 17.2 100430 82
2003-06-30 06:34:42 51°13.59 2°56.12 2.5 359 17.2 100430 82
2003-06-30 06:34:46 51°13.59 2°56.12 4.1 354 17.2 100430 82
2003-06-30 06:34:52 51°13.59 2°56.12 3.8 348 17.2 100430 82
2003-06-30 06:34:56 51°13.59 2°56.12 3.6 359 17.2 100430 82
2003-06-30 06:35:02 51°13.59 2°56.12 3.2 356 17.2 100430 82
2003-06-30 06:35:08 51°13.59 2°56.12 2.8 351 17.2 100430 82
2003-06-30 06:35:12 51°13.59 2°56.12 2.9 356 17.2 100440 82
2003-06-30 06:35:16 51°13.59 2°56.12 3.7 4 17.2 100440 82
2003-06-30 06:35:22 51°13.59 2°56.12 2.1 18 17.2 100430 82
2003-06-30 06:35:26 51°13.59 2°56.12 2.3 13 17.2 100430 82
2003-06-30 06:35:32 51°13.59 2°56.12 1.5 346 17.2 100440 82
2003-06-30 06:35:36 51°13.59 2°56.12 1.1 36 17.2 100440 82
2003-06-30 06:35:42 51°13.59 2°56.12 4.2 356 17.2 100430 82
2003-06-30 06:35:48 51°13.59 2°56.12 3.4 352 17.2 100430 82
2003-06-30 06:35:52 51°13.59 2°56.12 3.2 355 17.2 100440 82
2003-06-30 06:35:56 51°13.59 2°56.12 3.7 13 17.2 100440 82
2003-06-30 06:36:02 51°13.59 2°56.12 4 18 17.2 100430 82
2003-06-30 06:36:06 51°13.59 2°56.12 3.8 8 17.2 100430 82
2003-06-30 06:36:12 51°13.59 2°56.12 4.8 6 17.2 100430 82
2003-06-30 06:36:16 51°13.59 2°56.12 3.2 358 17.2 100430 82
2003-06-30 06:36:22 51°13.59 2°56.12 4.6 11 17.2 100430 82
2003-06-30 06:36:26 51°13.59 2°56.12 5.2 18 17.2 100430 82
2003-06-30 06:36:32 51°13.59 2°56.12 5.3 15 17.2 100430 82
2003-06-30 06:36:36 51°13.59 2°56.12 4.8 16 17.2 100430 82
2003-06-30 06:36:42 51°13.59 2°56.12 4.1 16 17.2 100430 82
2003-06-30 06:36:46 51°13.59 2°56.12 3.7 8 17.2 100430 82
2003-06-30 06:36:52 51°13.59 2°56.12 4.9 356 17.1 100430 82
2003-06-30 06:36:56 51°13.59 2°56.11 3.2 35 17.1 100430 82
2003-06-30 06:37:02 51°13.59 2°56.11 4.1 34 17.1 100430 82
2003-06-30 06:37:06 51°13.59 2°56.11 4.3 36 17.1 100430 82
2003-06-30 06:37:12 51°13.59 2°56.11 3.6 25 17.1 100440 82
2003-06-30 06:37:16 51°13.59 2°56.11 5.2 4 17.1 100440 82
2003-06-30 06:37:22 51°13.59 2°56.11 4.1 13 17.1 100430 82
2003-06-30 06:37:28 51°13.59 2°56.11 4.2 16 17.1 100430 82
2003-06-30 06:37:32 51°13.59 2°56.11 3.8 25 17.1 100430 82
2003-06-30 06:37:36 51°13.6 2°56.11 2.8 18 17.1 100430 82
2003-06-30 06:37:42 51°13.6 2°56.11 2.8 45 17.1 100430 82
2003-06-30 06:37:46 51°13.6 2°56.1 2.7 9 17.1 100430 82
2003-06-30 06:37:52 51°13.6 2°56.1 4.2 1 17.1 100430 82
2003-06-30 06:37:56 51°13.6 2°56.1 4.2 11 17.1 100430 82
2003-06-30 06:38:02 51°13.6 2°56.1 3.2 14 17.1 100430 82
2003-06-30 06:38:08 51°13.6 2°56.09 3.9 16 17.1 100430 82
2003-06-30 06:38:12 51°13.6 2°56.09 3.3 22 17.1 100440 82
2003-06-30 06:38:18 51°13.6 2°56.09 2.6 20 17.1 100440 82
2003-06-30 06:38:22 51°13.6 2°56.08 2.3 35 17.1 100430 82
2003-06-30 06:38:28 51°13.6 2°56.08 2.6 20 17.1 100430 82
2003-06-30 06:38:32 51°13.6 2°56.07 3.4 24 17.1 100430 82
2003-06-30 06:38:38 51°13.61 2°56.07 3.2 25 17.1 100430 82
2003-06-30 06:38:44 51°13.61 2°56.06 2.2 24 17.1 100440 82
2003-06-30 06:38:48 51°13.61 2°56.05 1.9 25 17.1 100440 82
2003-06-30 06:38:52 51°13.61 2°56.05 2.5 31 17.1 100430 82
2003-06-30 06:38:58 51°13.61 2°56.04 2 11 17.1 100430 82
2003-06-30 06:39:02 51°13.61 2°56.03 1.9 28 17 100430 82
2003-06-30 06:39:08 51°13.62 2°56.02 1.9 355 17 100430 82
2003-06-30 06:39:12 51°13.62 2°56.01 1.9 349 17 100430 82
2003-06-30 06:39:18 51°13.62 2°56 1.7 340 17 100430 82
2003-06-30 06:39:22 51°13.62 2°56 1.8 352 17 100430 82
2003-06-30 06:39:28 51°13.63 2°55.98 1.5 3 17 100430 82
2003-06-30 06:39:32 51°13.63 2°55.98 1.3 2 17.1 100430 82
2003-06-30 06:39:38 51°13.63 2°55.96 1.4 3 17.1 100430 82
2003-06-30 06:39:42 51°13.64 2°55.95 1.2 15 17.1 100430 82
2003-06-30 06:39:48 51°13.64 2°55.94 2.1 16 17.1 100430 82
2003-06-30 06:39:52 51°13.64 2°55.93 2 41 17.1 100440 82
2003-06-30 06:39:58 51°13.65 2°55.92 1.6 35 17.1 100440 82
2003-06-30 06:40:02 51°13.65 2°55.91 1.2 20 17.1 100430 82
2003-06-30 06:40:08 51°13.65 2°55.9 1.4 25 17.1 100430 82
2003-06-30 06:40:12 51°13.65 2°55.89 1.8 26 17.1 100430 82
2003-06-30 06:40:18 51°13.66 2°55.88 1.7 22 17.1 100430 82
2003-06-30 06:40:22 51°13.66 2°55.87 1.6 26 17.1 100430 82
2003-06-30 06:40:28 51°13.66 2°55.86 1.6 27 17.1 100430 82
2003-06-30 06:40:32 51°13.66 2°55.85 1.4 46 17.1 100440 82
2003-06-30 06:40:36 51°13.66 2°55.85 1.7 49 17.1 100440 82
2003-06-30 06:40:42 51°13.66 2°55.84 2 57 17.1 100440 82
2003-06-30 06:40:48 51°13.66 2°55.83 2.2 54 17.1 100440 82
2003-06-30 06:40:52 51°13.66 2°55.82 2 48 17.1 100440 82
2003-06-30 06:40:56 51°13.66 2°55.82 1.9 52 17.1 100440 82
2003-06-30 06:41:02 51°13.66 2°55.81 2.1 94 17.1 100440 82
2003-06-30 06:41:06 51°13.66 2°55.8 1.5 87 17.1 100440 82
2003-06-30 06:41:12 51°13.66 2°55.79 1.8 110 17.1 100430 82
2003-06-30 06:41:16 51°13.66 2°55.79 1.7 113 17.1 100430 82
2003-06-30 06:41:22 51°13.66 2°55.78 1.4 128 17.1 100440 82
2003-06-30 06:41:28 51°13.66 2°55.78 2.3 111 17.1 100440 82
2003-06-30 06:41:32 51°13.66 2°55.77 2.4 114 17.1 100440 82
2003-06-30 06:41:36 51°13.66 2°55.77 1.5 108 17.1 100440 82
2003-06-30 06:41:42 51°13.66 2°55.77 1.5 100 17.1 100440 82
2003-06-30 06:41:46 51°13.66 2°55.77 2 68 17.1 100440 82
2003-06-30 06:41:52 51°13.66 2°55.77 2.2 96 17.1 100430 83
2003-06-30 06:41:56 51°13.66 2°55.77 1.8 105 17.1 100430 83
2003-06-30 06:42:02 51°13.67 2°55.77 1.4 109 17.2 100430 83
2003-06-30 06:42:08 51°13.67 2°55.77 1.6 93 17.2 100430 83
2003-06-30 06:42:12 51°13.67 2°55.77 1.5 74 17.2 100430 83
2003-06-30 06:42:16 51°13.67 2°55.77 1.9 80 17.2 100430 83
2003-06-30 06:42:22 51°13.67 2°55.77 2.4 72 17.2 100440 82
2003-06-30 06:42:26 51°13.67 2°55.77 2.9 90 17.2 100440 82
2003-06-30 06:42:32 51°13.68 2°55.77 3.1 106 17.2 100430 82
2003-06-30 06:42:36 51°13.68 2°55.77 3.4 108 17.2 100430 82
2003-06-30 06:42:42 51°13.68 2°55.77 3.7 114 17.2 100430 82
2003-06-30 06:42:48 51°13.69 2°55.77 3.6 124 17.2 100430 82
2003-06-30 06:42:52 51°13.69 2°55.77 3.5 134 17.2 100440 83
2003-06-30 06:42:56 51°13.69 2°55.77 3 126 17.2 100440 83
2003-06-30 06:43:02 51°13.7 2°55.77 3 136 17.3 100440 83
2003-06-30 06:43:06 51°13.7 2°55.77 2.8 139 17.3 100440 83
2003-06-30 06:43:12 51°13.71 2°55.76 2.3 147 17.3 100440 83
2003-06-30 06:43:16 51°13.71 2°55.76 2.3 149 17.3 100440 83
2003-06-30 06:43:22 51°13.72 2°55.75 2 140 17.3 100430 82
2003-06-30 06:43:26 51°13.72 2°55.75 2.2 144 17.3 100430 82
2003-06-30 06:43:32 51°13.73 2°55.74 2.1 143 17.2 100440 82
2003-06-30 06:43:36 51°13.73 2°55.74 2.1 147 17.2 100440 82
2003-06-30 06:43:42 51°13.74 2°55.73 1.7 147 17.2 100440 82
2003-06-30 06:43:48 51°13.75 2°55.72 1.7 127 17.2 100440 82
2003-06-30 06:43:52 51°13.75 2°55.72 1.3 108 17.2 100430 82
2003-06-30 06:43:56 51°13.76 2°55.71 1.5 128 17.2 100430 82
2003-06-30 06:44:02 51°13.76 2°55.71 1.6 130 17.2 100440 82
2003-06-30 06:44:06 51°13.77 2°55.7 1 137 17.2 100440 82
2003-06-30 06:44:12 51°13.78 2°55.69 1.2 122 17.2 100440 82
2003-06-30 06:44:16 51°13.79 2°55.69 1.1 110 17.2 100440 82
2003-06-30 06:44:22 51°13.79 2°55.68 0.8 108 17.2 100430 82
2003-06-30 06:44:28 51°13.8 2°55.67 0.8 107 17.2 100430 82
2003-06-30 06:44:32 51°13.81 2°55.66 0.9 88 17.2 100430 82
2003-06-30 06:44:36 51°13.82 2°55.66 1.9 53 17.2 100430 82
2003-06-30 06:44:42 51°13.83 2°55.65 2.1 53 17.2 100430 82
2003-06-30 06:44:46 51°13.84 2°55.64 1.4 51 17.2 100430 82
2003-06-30 06:44:52 51°13.85 2°55.64 1.8 69 17.2 100430 82
2003-06-30 06:44:56 51°13.85 2°55.63 1.8 86 17.2 100430 82
2003-06-30 06:45:02 51°13.86 2°55.62 1.1 55 17.2 100430 82
2003-06-30 06:45:08 51°13.88 2°55.62 1.8 78 17.2 100430 82
2003-06-30 06:45:12 51°13.88 2°55.61 1.9 56 17.2 100430 82
2003-06-30 06:45:16 51°13.89 2°55.61 1.7 70 17.2 100430 82
2003-06-30 06:45:22 51°13.9 2°55.6 4 53 17.2 100430 82
2003-06-30 06:45:28 51°13.92 2°55.59 3.2 54 17.2 100430 82
2003-06-30 06:45:32 51°13.92 2°55.58 3.2 73 17.2 100430 82
2003-06-30 06:45:36 51°13.93 2°55.58 3.1 59 17.2 100430 82
2003-06-30 06:45:42 51°13.95 2°55.57 2.8 91 17.2 100430 82
2003-06-30 06:45:46 51°13.95 2°55.56 2.1 57 17.2 100430 82
2003-06-30 06:45:52 51°13.97 2°55.55 2.4 44 17.2 100430 82
2003-06-30 06:45:56 51°13.98 2°55.55 1.5 58 17.2 100430 82
2003-06-30 06:46:02 51°13.99 2°55.54 2 55 17.2 100430 82
2003-06-30 06:46:08 51°14.01 2°55.53 2 69 17.2 100430 82
2003-06-30 06:46:12 51°14.02 2°55.52 2.1 79 17.2 100430 82
2003-06-30 06:46:16 51°14.02 2°55.52 1.8 79 17.2 100430 82
2003-06-30 06:46:22 51°14.04 2°55.51 1.7 76 17.2 100430 82
2003-06-30 06:46:26 51°14.05 2°55.5 2.2 69 17.2 100430 82
2003-06-30 06:46:32 51°14.06 2°55.49 2.6 95 17.2 100430 82
2003-06-30 06:46:36 51°14.07 2°55.48 2.6 89 17.2 100430 82
2003-06-30 06:46:42 51°14.09 2°55.47 2.3 90 17.2 100430 82
2003-06-30 06:46:48 51°14.1 2°55.45 2.1 93 17.2 100430 82
2003-06-30 06:46:52 51°14.11 2°55.45 1.8 85 17.2 100420 82
2003-06-30 06:46:56 51°14.12 2°55.44 2.2 64 17.2 100420 82
2003-06-30 06:47:02 51°14.13 2°55.42 3 61 17.2 100420 82
2003-06-30 06:47:06 51°14.14 2°55.42 2.4 59 17.2 100420 82
2003-06-30 06:47:12 51°14.15 2°55.4 2.3 72 17.2 100430 82
2003-06-30 06:47:16 51°14.16 2°55.39 2.1 45 17.2 100430 82
2003-06-30 06:47:22 51°14.18 2°55.38 2.8 60 17.2 100430 82
2003-06-30 06:47:28 51°14.19 2°55.37 2.5 76 17.2 100430 82
2003-06-30 06:47:32 51°14.2 2°55.36 1.9 73 17.2 100420 82
2003-06-30 06:47:36 51°14.21 2°55.35 1.9 59 17.2 100420 82
2003-06-30 06:47:42 51°14.22 2°55.33 2.4 52 17.2 100420 82
2003-06-30 06:47:48 51°14.23 2°55.31 2 55 17.2 100420 82
2003-06-30 06:47:52 51°14.24 2°55.3 1.8 69 17.2 100420 82
2003-06-30 06:47:56 51°14.25 2°55.29 1.7 51 17.2 100420 82
2003-06-30 06:48:02 51°14.26 2°55.27 2 49 17.2 100420 82
2003-06-30 06:48:06 51°14.26 2°55.26 1.6 82 17.2 100420 82
2003-06-30 06:48:12 51°14.28 2°55.24 1.8 61 17.2 100420 82
2003-06-30 06:48:16 51°14.28 2°55.22 2.6 55 17.2 100420 82
2003-06-30 06:48:22 51°14.29 2°55.21 2.6 56 17.2 100420 82
2003-06-30 06:48:28 51°14.3 2°55.18 2.2 59 17.2 100420 82
2003-06-30 06:48:32 51°14.31 2°55.17 2.4 57 17.2 100420 82
2003-06-30 06:48:36 51°14.32 2°55.16 2.7 52 17.2 100420 82
2003-06-30 06:48:42 51°14.33 2°55.14 2.7 50 17.3 100420 82
2003-06-30 06:48:46 51°14.33 2°55.12 2.6 53 17.3 100420 82
2003-06-30 06:48:52 51°14.35 2°55.1 3.2 31 17.2 100420 82
2003-06-30 06:48:56 51°14.35 2°55.09 3.5 16 17.2 100420 82
2003-06-30 06:49:02 51°14.36 2°55.06 3.8 40 17.2 100420 82
2003-06-30 06:49:08 51°14.38 2°55.04 3.6 55 17.2 100420 82
2003-06-30 06:49:12 51°14.39 2°55.03 2.8 71 17.2 100420 82
2003-06-30 06:49:16 51°14.39 2°55.02 3.3 62 17.2 100420 82
2003-06-30 06:49:22 51°14.41 2°55 3.5 43 17.3 100420 82
2003-06-30 06:49:26 51°14.42 2°54.98 3.6 39 17.3 100420 82
2003-06-30 06:49:32 51°14.43 2°54.96 2.3 63 17.2 100420 82
2003-06-30 06:49:36 51°14.44 2°54.95 2 76 17.2 100420 82
2003-06-30 06:49:42 51°14.45 2°54.93 2.1 44 17.2 100410 82
2003-06-30 06:49:46 51°14.46 2°54.91 1.9 54 17.2 100410 82
2003-06-30 06:49:52 51°14.47 2°54.89 2.4 27 17.2 100410 82
2003-06-30 06:49:56 51°14.48 2°54.88 2.8 54 17.2 100410 82
2003-06-30 06:50:02 51°14.49 2°54.85 2.5 59 17.2 100420 82
2003-06-30 06:50:08 51°14.5 2°54.83 2.9 56 17.2 100420 82
2003-06-30 06:50:12 51°14.51 2°54.82 2.8 68 17.2 100420 82
2003-06-30 06:50:16 51°14.52 2°54.81 3.4 57 17.2 100420 82
2003-06-30 06:50:22 51°14.54 2°54.79 3.7 61 17.2 100420 82
2003-06-30 06:50:26 51°14.54 2°54.78 3 67 17.2 100420 82
2003-06-30 06:50:32 51°14.56 2°54.76 3.3 70 17.2 100410 82
2003-06-30 06:50:36 51°14.57 2°54.75 3.4 65 17.2 100410 82
2003-06-30 06:50:42 51°14.58 2°54.73 3.3 55 17.2 100410 82
2003-06-30 06:50:48 51°14.6 2°54.71 3.4 50 17.2 100410 82
2003-06-30 06:50:52 51°14.61 2°54.7 4.5 65 17.2 100410 82
2003-06-30 06:50:56 51°14.62 2°54.69 4.4 61 17.2 100410 82
2003-06-30 06:51:02 51°14.64 2°54.68 4.2 61 17.2 100410 82
2003-06-30 06:51:06 51°14.65 2°54.67 4.6 63 17.2 100410 82
2003-06-30 06:51:12 51°14.66 2°54.66 5 61 17.2 100410 82
2003-06-30 06:51:16 51°14.67 2°54.65 4.3 67 17.2 100410 82
2003-06-30 06:51:22 51°14.69 2°54.63 4.2 65 17.2 100410 82
2003-06-30 06:51:28 51°14.71 2°54.62 4.3 65 17.2 100410 82
2003-06-30 06:51:32 51°14.72 2°54.62 4.6 72 17.2 100410 82
2003-06-30 06:51:36 51°14.73 2°54.61 4.5 67 17.2 100410 82
2003-06-30 06:51:42 51°14.75 2°54.6 5.2 61 17.2 100400 82
2003-06-30 06:51:46 51°14.76 2°54.59 5.7 63 17.2 100400 82
2003-06-30 06:51:52 51°14.78 2°54.58 5.1 71 17.2 100410 82
2003-06-30 06:51:56 51°14.79 2°54.58 3.3 58 17.2 100410 82
2003-06-30 06:52:02 51°14.81 2°54.57 5.8 69 17.2 100400 82
2003-06-30 06:52:06 51°14.82 2°54.56 5.9 64 17.2 100400 82
2003-06-30 06:52:12 51°14.84 2°54.56 5.7 70 17.2 100410 82
2003-06-30 06:52:16 51°14.85 2°54.55 6.3 63 17.2 100410 82
2003-06-30 06:52:22 51°14.87 2°54.55 6 61 17.2 100400 82
2003-06-30 06:52:28 51°14.89 2°54.54 6.2 66 17.2 100400 82
2003-06-30 06:52:32 51°14.9 2°54.54 6.8 63 17.2 100400 82
2003-06-30 06:52:36 51°14.91 2°54.54 5.9 69 17.2 100400 82
2003-06-30 06:52:42 51°14.93 2°54.53 6.8 66 17.2 100400 82
2003-06-30 06:52:46 51°14.95 2°54.53 6.9 63 17.2 100400 82
2003-06-30 06:52:52 51°14.97 2°54.53 6.6 63 17.2 100400 82
2003-06-30 06:52:56 51°14.98 2°54.52 6.8 61 17.2 100400 82
2003-06-30 06:53:02 51°15 2°54.52 6.3 72 17.2 100400 82
2003-06-30 06:53:08 51°15.02 2°54.52 6.7 68 17.2 100400 82
2003-06-30 06:53:12 51°15.03 2°54.51 6.5 66 17.2 100400 82
2003-06-30 06:53:16 51°15.04 2°54.51 6.1 72 17.2 100400 82
2003-06-30 06:53:22 51°15.06 2°54.51 4.8 76 17.2 100400 82
2003-06-30 06:53:28 51°15.08 2°54.5 6.9 62 17.2 100400 82
2003-06-30 06:53:32 51°15.09 2°54.5 6.1 70 17.2 100400 82
2003-06-30 06:53:42 51°15.12 2°54.49 6 74 17.2 100400 82
2003-06-30 06:53:48 51°15.14 2°54.48 5.1 71 17.2 100400 82
2003-06-30 06:53:52 51°15.15 2°54.48 4.9 69 17.2 100400 82
2003-06-30 06:53:56 51°15.16 2°54.47 6.1 71 17.2 100400 82
2003-06-30 06:54:00 51°15.18 2°54.47 5.7 66 17.2 100400 82
2003-06-30 06:54:08 51°15.2 2°54.46 4.8 74 17.2 100400 82
2003-06-30 06:54:12 51°15.21 2°54.45 5.5 74 17.2 100400 82
2003-06-30 06:54:16 51°15.23 2°54.45 5.2 72 17.2 100400 82
2003-06-30 06:54:22 51°15.24 2°54.44 5 77 17.2 100400 82
2003-06-30 06:54:26 51°15.26 2°54.43 4.3 75 17.2 100400 82
2003-06-30 06:54:32 51°15.28 2°54.42 6.1 64 17.2 100400 82
2003-06-30 06:54:36 51°15.29 2°54.41 5.4 75 17.2 100400 82
2003-06-30 06:54:42 51°15.31 2°54.41 5.3 77 17.2 100400 82
2003-06-30 06:54:48 51°15.33 2°54.4 5.1 74 17.2 100400 82
2003-06-30 06:54:52 51°15.34 2°54.4 6.8 65 17.2 100400 82
2003-06-30 06:54:56 51°15.35 2°54.39 7.3 64 17.2 100400 82
2003-06-30 06:55:02 51°15.37 2°54.39 6.6 64 17.2 100400 82
2003-06-30 06:55:06 51°15.38 2°54.39 6.8 62 17.2 100400 82
2003-06-30 06:55:12 51°15.4 2°54.38 6.8 64 17.2 100400 82
2003-06-30 06:55:16 51°15.41 2°54.38 7.9 60 17.2 100400 82
2003-06-30 06:55:22 51°15.43 2°54.38 7.9 63 17.2 100400 82
2003-06-30 06:55:28 51°15.45 2°54.38 7 62 17.2 100400 82
2003-06-30 06:55:32 51°15.46 2°54.38 8.8 58 17.2 100400 82
2003-06-30 06:55:36 51°15.48 2°54.38 8.4 65 17.2 100400 82
2003-06-30 06:55:42 51°15.5 2°54.38 7.2 65 17.2 100390 82
2003-06-30 06:55:46 51°15.51 2°54.38 7.8 58 17.2 100390 82
2003-06-30 06:55:52 51°15.53 2°54.38 7.2 57 17.2 100400 82
2003-06-30 06:55:56 51°15.54 2°54.38 7.5 63 17.2 100400 82
2003-06-30 06:56:02 51°15.56 2°54.38 7.8 57 17.2 100390 82
2003-06-30 06:56:08 51°15.58 2°54.39 7 62 17.2 100390 82
2003-06-30 06:56:12 51°15.59 2°54.39 7.1 67 17.2 100390 82
2003-06-30 06:56:16 51°15.6 2°54.39 7.6 64 17.2 100390 82
2003-06-30 06:56:22 51°15.62 2°54.39 7.5 59 17.2 100390 82
2003-06-30 06:56:28 51°15.64 2°54.39 7.9 64 17.2 100390 82
2003-06-30 06:56:32 51°15.65 2°54.39 7 63 17.2 100400 82
2003-06-30 06:56:36 51°15.67 2°54.39 7.1 60 17.2 100400 82
2003-06-30 06:56:42 51°15.69 2°54.38 7.2 65 17.2 100390 82
2003-06-30 06:56:46 51°15.7 2°54.38 7.1 61 17.2 100390 82
2003-06-30 06:56:52 51°15.72 2°54.38 7.8 56 17.2 100390 82
2003-06-30 06:56:56 51°15.73 2°54.38 6.9 68 17.2 100390 82
2003-06-30 06:57:02 51°15.75 2°54.38 6.6 71 17.2 100390 82
2003-06-30 06:57:08 51°15.77 2°54.38 7.3 61 17.2 100390 82
2003-06-30 06:57:12 51°15.78 2°54.37 7.4 62 17.2 100390 82
2003-06-30 06:57:16 51°15.79 2°54.37 7 66 17.2 100390 82
2003-06-30 06:57:22 51°15.81 2°54.37 6.8 62 17.2 100390 82
2003-06-30 06:57:26 51°15.83 2°54.37 7.8 63 17.2 100390 82
2003-06-30 06:57:32 51°15.84 2°54.37 7.6 67 17.2 100390 82
2003-06-30 06:57:36 51°15.86 2°54.37 6.5 76 17.2 100390 82
2003-06-30 06:57:42 51°15.88 2°54.37 6.6 65 17.2 100390 82
2003-06-30 06:57:48 51°15.9 2°54.36 6.4 69 17.2 100390 82
2003-06-30 06:57:52 51°15.91 2°54.36 6.6 65 17.2 100390 82
2003-06-30 06:57:56 51°15.92 2°54.35 6.2 68 17.2 100390 82
2003-06-30 06:58:02 51°15.94 2°54.35 6.1 75 17.2 100380 81
2003-06-30 06:58:06 51°15.95 2°54.34 6.2 71 17.2 100380 81
2003-06-30 06:58:12 51°15.97 2°54.33 6.8 65 17.2 100390 82
2003-06-30 06:58:16 51°15.98 2°54.32 6 72 17.2 100390 82
2003-06-30 06:58:22 51°16 2°54.32 7 67 17.2 100390 82
2003-06-30 06:58:26 51°16.01 2°54.31 6.4 69 17.2 100390 82
2003-06-30 06:58:32 51°16.03 2°54.31 6.7 65 17.3 100380 82
2003-06-30 06:58:36 51°16.05 2°54.3 7.1 67 17.3 100380 82
2003-06-30 06:58:42 51°16.06 2°54.3 6.8 65 17.3 100390 82
2003-06-30 06:58:48 51°16.08 2°54.3 6.2 66 17.3 100390 82
2003-06-30 06:58:52 51°16.09 2°54.29 6 69 17.3 100380 82
2003-06-30 06:58:56 51°16.11 2°54.29 6 73 17.3 100380 82
2003-06-30 06:59:02 51°16.12 2°54.28 5.7 72 17.2 100380 81
2003-06-30 06:59:06 51°16.13 2°54.28 5.1 73 17.2 100380 81
2003-06-30 06:59:12 51°16.15 2°54.27 6.4 84 17.2 100380 81
2003-06-30 06:59:16 51°16.16 2°54.27 6.3 82 17.2 100380 81
2003-06-30 06:59:22 51°16.17 2°54.26 6.6 82 17.3 100380 81
2003-06-30 06:59:28 51°16.19 2°54.26 6.4 93 17.3 100380 81
2003-06-30 06:59:32 51°16.2 2°54.25 6.4 94 17.3 100390 82
2003-06-30 06:59:36 51°16.2 2°54.25 6 95 17.3 100390 82
2003-06-30 06:59:42 51°16.22 2°54.24 5.7 101 17.3 100380 81
2003-06-30 06:59:46 51°16.22 2°54.23 5.3 95 17.3 100380 81
2003-06-30 06:59:52 51°16.23 2°54.23 5 95 17.3 100380 81
2003-06-30 06:59:56 51°16.24 2°54.22 5.1 98 17.3 100380 81
2003-06-30 07:00:02 51°16.25 2°54.22 6 101 17.3 100380 81
2003-06-30 07:00:08 51°16.25 2°54.21 6.2 103 17.3 100380 81
2003-06-30 07:00:12 51°16.26 2°54.21 6.1 96 17.3 100380 81
2003-06-30 07:00:16 51°16.26 2°54.21 6.3 99 17.3 100380 81
2003-06-30 07:00:22 51°16.27 2°54.21 5.9 93 17.3 100390 82
2003-06-30 07:00:28 51°16.27 2°54.2 6 91 17.3 100390 82
2003-06-30 07:00:32 51°16.27 2°54.2 5.8 96 17.3 100380 81
2003-06-30 07:00:36 51°16.27 2°54.2 5.9 91 17.3 100380 81
2003-06-30 07:00:42 51°16.27 2°54.2 5.8 90 17.3 100380 81
2003-06-30 07:00:48 51°16.27 2°54.19 5.9 92 17.3 100380 81
2003-06-30 07:00:52 51°16.27 2°54.19 6.4 91 17.4 100380 81
2003-06-30 07:00:56 51°16.27 2°54.19 6.5 87 17.4 100380 81
2003-06-30 07:01:02 51°16.27 2°54.19 6.3 86 17.4 100380 81
2003-06-30 07:01:08 51°16.27 2°54.18 6 88 17.4 100380 81
2003-06-30 07:01:12 51°16.27 2°54.18 5.4 83 17.4 100370 82
2003-06-30 07:01:16 51°16.27 2°54.18 6.4 81 17.4 100370 82
2003-06-30 07:01:22 51°16.27 2°54.18 5.6 80 17.4 100380 82
2003-06-30 07:01:26 51°16.27 2°54.18 5.7 82 17.4 100380 82
2003-06-30 07:01:32 51°16.27 2°54.17 5.9 82 17.4 100380 82
2003-06-30 07:01:36 51°16.27 2°54.17 5.7 79 17.4 100380 82
2003-06-30 07:01:40 51°16.27 2°54.17 4.9 78 17.4 100370 81
2003-06-30 07:01:50 51°16.27 2°54.17 5.7 70 17.4 100370 81
2003-06-30 07:01:54 51°16.27 2°54.16 5.4 71 17.4 100370 81
2003-06-30 07:02:00 51°16.27 2°54.16 5.5 75 17.4 100370 81
2003-06-30 07:02:04 51°16.27 2°54.16 5.5 76 17.4 100370 81
2003-06-30 07:02:10 51°16.27 2°54.16 5.3 70 17.4 100370 81
2003-06-30 07:02:14 51°16.27 2°54.16 5.5 68 17.4 100370 81
2003-06-30 07:02:20 51°16.27 2°54.16 6.2 60 17.4 100370 81
2003-06-30 07:02:24 51°16.27 2°54.15 5.8 67 17.4 100370 81
2003-06-30 07:02:28 51°16.27 2°54.15 6.6 60 17.4 100370 81
2003-06-30 07:02:36 51°16.27 2°54.15 6.9 60 17.4 100370 81
2003-06-30 07:02:40 51°16.27 2°54.15 6.2 67 17.4 100370 81
2003-06-30 07:02:44 51°16.27 2°54.15 7 59 17.4 100370 81
2003-06-30 07:02:50 51°16.27 2°54.15 7.5 60 17.4 100370 81
2003-06-30 07:02:54 51°16.27 2°54.15 6.6 61 17.4 100370 81
2003-06-30 07:03:00 51°16.27 2°54.15 7.1 62 17.4 100370 81
2003-06-30 07:03:04 51°16.27 2°54.15 7 62 17.5 100360 81
2003-06-30 07:03:10 51°16.27 2°54.14 6.5 58 17.5 100360 81
2003-06-30 07:03:14 51°16.27 2°54.14 6.8 55 17.5 100360 81
2003-06-30 07:03:20 51°16.27 2°54.14 7.3 60 17.5 100360 81
2003-06-30 07:03:24 51°16.27 2°54.14 7.4 58 17.4 100360 81
2003-06-30 07:03:28 51°16.28 2°54.14 7.2 64 17.4 100360 81
2003-06-30 07:03:34 51°16.28 2°54.14 7 60 17.4 100360 81
2003-06-30 07:03:40 51°16.28 2°54.14 7 55 17.4 100360 81
2003-06-30 07:03:44 51°16.28 2°54.14 6.8 59 17.5 100360 81
2003-06-30 07:03:50 51°16.28 2°54.14 6.4 58 17.5 100360 81
2003-06-30 07:03:54 51°16.28 2°54.14 6.2 56 17.4 100360 81
2003-06-30 07:04:00 51°16.28 2°54.13 6.3 58 17.4 100360 81
2003-06-30 07:04:04 51°16.28 2°54.13 6.2 52 17.4 100360 81
2003-06-30 07:04:10 51°16.28 2°54.13 7.2 55 17.4 100360 81
2003-06-30 07:04:14 51°16.28 2°54.13 7.3 56 17.4 100360 81
2003-06-30 07:04:20 51°16.28 2°54.13 7.7 53 17.4 100360 81
2003-06-30 07:04:24 51°16.28 2°54.13 7.2 57 17.5 100360 81
2003-06-30 07:04:28 51°16.28 2°54.13 7.4 54 17.5 100360 81
2003-06-30 07:04:34 51°16.28 2°54.13 7.1 56 17.5 100360 81
2003-06-30 07:04:40 51°16.28 2°54.13 7 55 17.5 100360 81
2003-06-30 07:04:50 51°16.28 2°54.13 6.7 53 17.5 100350 81
2003-06-30 07:04:54 51°16.28 2°54.13 6.8 56 17.4 100350 80
2003-06-30 07:05:00 51°16.28 2°54.13 6.4 50 17.4 100350 80
2003-06-30 07:05:04 51°16.28 2°54.13 7.1 48 17.4 100360 80
2003-06-30 07:05:10 51°16.28 2°54.13 7.4 50 17.4 100360 80
2003-06-30 07:05:16 51°16.28 2°54.13 7.1 50 17.4 100360 80
2003-06-30 07:05:20 51°16.28 2°54.13 7 52 17.4 100360 80
2003-06-30 07:05:24 51°16.28 2°54.13 7 51 17.4 100350 81
2003-06-30 07:05:30 51°16.28 2°54.13 7.3 52 17.4 100350 81
2003-06-30 07:05:32 51°16.28 2°54.13 6.8 51 17.4 100350 80
2003-06-30 07:05:40 51°16.28 2°54.13 7 53 17.4 100350 80
2003-06-30 07:05:44 51°16.28 2°54.13 7 51 17.4 100350 80
2003-06-30 07:05:50 51°16.28 2°54.12 6.2 39 17.4 100350 80
2003-06-30 07:05:54 51°16.28 2°54.12 6.4 45 17.4 100350 80
2003-06-30 07:06:00 51°16.28 2°54.12 6.6 42 17.4 100350 80
2003-06-30 07:06:04 51°16.28 2°54.12 6.7 47 17.4 100350 80
2003-06-30 07:06:10 51°16.28 2°54.12 6.6 46 17.4 100350 80
2003-06-30 07:06:14 51°16.28 2°54.12 6.9 42 17.4 100350 80
2003-06-30 07:06:20 51°16.28 2°54.12 7.7 44 17.4 100350 80
2003-06-30 07:06:24 51°16.28 2°54.12 7.6 45 17.4 100350 81
2003-06-30 07:06:30 51°16.28 2°54.12 6.6 46 17.4 100350 81
2003-06-30 07:06:36 51°16.28 2°54.12 7 41 17.5 100350 81
2003-06-30 07:06:40 51°16.28 2°54.12 6.9 41 17.5 100350 81
2003-06-30 07:06:44 51°16.28 2°54.12 6.8 43 17.5 100350 81
2003-06-30 07:06:50 51°16.28 2°54.12 6.8 42 17.5 100350 81
2003-06-30 07:06:56 51°16.28 2°54.12 6.8 38 17.4 100340 80
2003-06-30 07:07:00 51°16.28 2°54.12 7.2 38 17.4 100340 80
2003-06-30 07:07:04 51°16.28 2°54.12 7.4 36 17.4 100350 80
2003-06-30 07:07:10 51°16.28 2°54.12 7.2 37 17.4 100350 80
2003-06-30 07:07:16 51°16.28 2°54.12 6.8 40 17.4 100350 80
2003-06-30 07:07:20 51°16.28 2°54.12 6.9 43 17.4 100350 80
2003-06-30 07:07:24 51°16.28 2°54.12 6.6 39 17.4 100350 80
2003-06-30 07:07:30 51°16.28 2°54.12 6.5 40 17.4 100350 80
2003-06-30 07:07:36 51°16.28 2°54.12 6.9 37 17.4 100340 80
2003-06-30 07:07:40 51°16.28 2°54.12 6.6 37 17.4 100340 80
2003-06-30 07:07:44 51°16.28 2°54.12 6.8 37 17.4 100340 80
2003-06-30 07:07:50 51°16.28 2°54.12 7.2 36 17.4 100340 80
2003-06-30 07:07:54 51°16.28 2°54.12 6.7 41 17.4 100340 80
2003-06-30 07:08:00 51°16.28 2°54.12 6.7 36 17.4 100340 80
2003-06-30 07:08:04 51°16.28 2°54.12 6.5 41 17.4 100340 80
2003-06-30 07:08:10 51°16.28 2°54.12 6.3 38 17.4 100340 80
2003-06-30 07:08:16 51°16.28 2°54.12 6.8 36 17.4 100340 80
2003-06-30 07:08:20 51°16.28 2°54.12 6.5 35 17.4 100340 80
2003-06-30 07:08:24 51°16.28 2°54.12 7 41 17.4 100340 80
2003-06-30 07:08:30 51°16.28 2°54.12 6.5 34 17.4 100340 80
2003-06-30 07:08:34 51°16.28 2°54.12 6.8 42 17.4 100340 80
2003-06-30 07:08:40 51°16.28 2°54.12 6.5 35 17.4 100340 80
2003-06-30 07:08:44 51°16.28 2°54.12 6.4 36 17.4 100340 81
2003-06-30 07:08:50 51°16.28 2°54.12 6.7 38 17.4 100340 81
2003-06-30 07:08:56 51°16.28 2°54.12 6.8 32 17.4 100330 81
2003-06-30 07:09:00 51°16.28 2°54.12 6.3 30 17.4 100330 81
2003-06-30 07:09:04 51°16.28 2°54.12 6.6 31 17.5 100340 81
2003-06-30 07:09:10 51°16.28 2°54.12 6.6 29 17.5 100340 81
2003-06-30 07:09:16 51°16.28 2°54.12 6.6 32 17.4 100330 81
2003-06-30 07:09:20 51°16.28 2°54.12 6.1 35 17.4 100330 81
2003-06-30 07:09:24 51°16.28 2°54.12 6.3 34 17.4 100330 80
2003-06-30 07:09:30 51°16.28 2°54.12 6.8 31 17.4 100330 80
2003-06-30 07:09:34 51°16.28 2°54.12 7 32 17.4 100330 81
2003-06-30 07:09:40 51°16.28 2°54.12 7.3 32 17.4 100330 81
2003-06-30 07:09:44 51°16.28 2°54.12 7.4 30 17.4 100330 81
2003-06-30 07:09:50 51°16.28 2°54.12 6.9 29 17.4 100330 81
2003-06-30 07:09:56 51°16.28 2°54.12 6.8 31 17.4 100330 81
2003-06-30 07:10:00 51°16.28 2°54.12 7.8 28 17.4 100330 81
2003-06-30 07:10:04 51°16.28 2°54.12 7.4 35 17.4 100330 81
2003-06-30 07:10:10 51°16.28 2°54.12 6.6 34 17.4 100330 81
2003-06-30 07:10:14 51°16.28 2°54.12 7 31 17.4 100330 81
2003-06-30 07:10:20 51°16.28 2°54.12 6.5 22 17.4 100330 81
2003-06-30 07:10:24 51°16.27 2°54.12 6.4 29 17.4 100330 80
2003-06-30 07:10:30 51°16.27 2°54.12 6.6 27 17.4 100330 80
2003-06-30 07:10:36 51°16.27 2°54.12 7.3 27 17.4 100330 80
2003-06-30 07:10:40 51°16.27 2°54.12 7.8 24 17.4 100330 80
2003-06-30 07:10:44 51°16.27 2°54.13 7.7 20 17.4 100320 81
2003-06-30 07:10:50 51°16.27 2°54.13 7.5 10 17.4 100320 81
2003-06-30 07:10:54 51°16.27 2°54.13 8 12 17.4 100330 81
2003-06-30 07:11:00 51°16.27 2°54.14 8 8 17.4 100330 81
2003-06-30 07:11:04 51°16.27 2°54.14 8.7 357 17.4 100330 81
2003-06-30 07:11:10 51°16.27 2°54.15 8.6 356 17.4 100330 81
2003-06-30 07:11:16 51°16.27 2°54.16 8.3 359 17.4 100330 81
2003-06-30 07:11:20 51°16.26 2°54.16 8.2 353 17.4 100330 81
2003-06-30 07:11:24 51°16.26 2°54.17 8.6 344 17.4 100320 81
2003-06-30 07:11:30 51°16.25 2°54.17 7.8 339 17.4 100320 81
2003-06-30 07:11:36 51°16.25 2°54.18 8.4 341 17.4 100320 81
2003-06-30 07:11:40 51°16.24 2°54.18 8.6 333 17.4 100320 81
2003-06-30 07:11:44 51°16.24 2°54.19 8.9 330 17.4 100320 81
2003-06-30 07:11:50 51°16.23 2°54.19 7.8 324 17.4 100320 81
2003-06-30 07:11:54 51°16.22 2°54.19 8 325 17.4 100310 81
2003-06-30 07:12:00 51°16.22 2°54.2 8.4 228 17.4 100310 81
2003-06-30 07:12:04 51°16.21 2°54.2 8.2 313 17.4 100310 81
2003-06-30 07:12:10 51°16.2 2°54.2 7.5 309 17.4 100310 81
2003-06-30 07:12:16 51°16.19 2°54.2 7 306 17.4 100310 81
2003-06-30 07:12:20 51°16.18 2°54.19 7 296 17.4 100310 81
2003-06-30 07:12:24 51°16.17 2°54.19 7.4 295 17.4 100320 81
2003-06-30 07:12:30 51°16.16 2°54.18 6 287 17.4 100320 81
2003-06-30 07:12:34 51°16.15 2°54.17 5.4 285 17.4 100310 81
2003-06-30 07:12:40 51°16.14 2°54.16 5.8 277 17.4 100310 81
2003-06-30 07:12:44 51°16.13 2°54.15 6.6 267 17.4 100320 81
2003-06-30 07:12:50 51°16.12 2°54.13 4.2 262 17.4 100320 81
2003-06-30 07:12:56 51°16.11 2°54.11 4 261 17.4 100320 81
2003-06-30 07:13:00 51°16.1 2°54.09 3.1 236 17.4 100320 81
2003-06-30 07:13:04 51°16.1 2°54.08 2.9 219 17.4 100320 81
2003-06-30 07:13:10 51°16.1 2°54.05 2.1 193 17.4 100320 81
2003-06-30 07:13:14 51°16.09 2°54.03 2.1 184 17.4 100320 81
2003-06-30 07:13:20 51°16.09 2°54.01 1.7 160 17.4 100320 81
2003-06-30 07:13:24 51°16.09 2°53.99 1.4 125 17.4 100320 81
2003-06-30 07:13:30 51°16.09 2°53.97 3.9 98 17.4 100320 81
2003-06-30 07:13:36 51°16.1 2°53.94 3.4 91 17.4 100320 81
2003-06-30 07:13:40 51°16.1 2°53.92 3.5 106 17.4 100320 81
2003-06-30 07:13:44 51°16.11 2°53.91 3.9 113 17.4 100320 81
2003-06-30 07:13:50 51°16.12 2°53.88 4.6 91 17.4 100320 81
2003-06-30 07:13:56 51°16.13 2°53.86 5.2 89 17.4 100320 81
2003-06-30 07:14:00 51°16.13 2°53.85 4.8 79 17.4 100320 81
2003-06-30 07:14:04 51°16.14 2°53.83 5.3 81 17.4 100310 81
2003-06-30 07:14:10 51°16.15 2°53.81 6.2 85 17.4 100310 81
2003-06-30 07:14:14 51°16.16 2°53.8 5.8 80 17.4 100320 81
2003-06-30 07:14:20 51°16.18 2°53.78 5 76 17.4 100320 81
2003-06-30 07:14:24 51°16.18 2°53.77 5.6 80 17.4 100310 81
2003-06-30 07:14:30 51°16.2 2°53.75 4.8 76 17.4 100310 81
2003-06-30 07:14:36 51°16.21 2°53.73 6.9 82 17.4 100310 81
2003-06-30 07:14:40 51°16.22 2°53.71 6.1 80 17.4 100310 81
2003-06-30 07:14:44 51°16.23 2°53.7 6 80 17.4 100300 81
2003-06-30 07:14:50 51°16.25 2°53.68 4.7 74 17.4 100300 81
2003-06-30 07:14:54 51°16.26 2°53.67 5.3 70 17.4 100310 82
2003-06-30 07:15:00 51°16.27 2°53.65 6.2 77 17.4 100310 82
2003-06-30 07:15:04 51°16.28 2°53.63 5.2 76 17.4 100300 81
2003-06-30 07:15:10 51°16.3 2°53.61 4.9 75 17.4 100300 81
2003-06-30 07:15:16 51°16.31 2°53.59 5.3 73 17.4 100300 81
2003-06-30 07:15:20 51°16.32 2°53.57 6.9 66 17.4 100300 81
2003-06-30 07:15:24 51°16.33 2°53.56 5.9 68 17.4 100300 81
2003-06-30 07:15:30 51°16.35 2°53.53 6.5 73 17.4 100300 81
2003-06-30 07:15:34 51°16.36 2°53.52 6.5 74 17.4 100300 82
2003-06-30 07:15:40 51°16.38 2°53.49 7.5 63 17.4 100300 82
2003-06-30 07:15:44 51°16.39 2°53.48 5.7 70 17.5 100300 82
2003-06-30 07:15:50 51°16.41 2°53.45 6.4 66 17.5 100300 82
2003-06-30 07:15:54 51°16.42 2°53.44 6.5 66 17.4 100300 82
2003-06-30 07:16:00 51°16.43 2°53.41 6 66 17.4 100300 82
2003-06-30 07:16:04 51°16.45 2°53.39 6.1 67 17.5 100290 82
2003-06-30 07:16:10 51°16.46 2°53.37 6.1 74 17.5 100290 82
2003-06-30 07:16:16 51°16.48 2°53.35 5.5 76 17.5 100300 81
2003-06-30 07:16:20 51°16.49 2°53.33 6.6 70 17.5 100300 81
2003-06-30 07:16:24 51°16.5 2°53.31 7 66 17.5 100300 82
2003-06-30 07:16:30 51°16.52 2°53.29 6.9 62 17.5 100300 82
2003-06-30 07:16:34 51°16.53 2°53.27 7.2 64 17.5 100290 82
2003-06-30 07:16:40 51°16.55 2°53.25 6.8 64 17.5 100290 82
2003-06-30 07:16:44 51°16.56 2°53.23 6.5 75 17.5 100300 82
2003-06-30 07:16:50 51°16.58 2°53.21 6.7 65 17.5 100300 82
2003-06-30 07:16:56 51°16.6 2°53.18 7.1 65 17.5 100290 82
2003-06-30 07:17:00 51°16.61 2°53.17 7.3 68 17.5 100290 82
2003-06-30 07:17:04 51°16.62 2°53.15 7 63 17.5 100290 82
2003-06-30 07:17:10 51°16.64 2°53.13 6.8 71 17.5 100290 82
2003-06-30 07:17:14 51°16.65 2°53.11 7 67 17.4 100290 81
2003-06-30 07:17:20 51°16.67 2°53.09 6.6 72 17.4 100290 81
2003-06-30 07:17:24 51°16.68 2°53.08 6.7 71 17.5 100290 82
2003-06-30 07:17:30 51°16.7 2°53.06 7.8 68 17.5 100290 82
2003-06-30 07:17:36 51°16.72 2°53.03 7.1 69 17.5 100280 82
2003-06-30 07:17:40 51°16.73 2°53.02 6.1 73 17.5 100280 82
2003-06-30 07:17:44 51°16.74 2°53 6.7 74 17.5 100290 81
2003-06-30 07:17:50 51°16.76 2°52.98 6.7 77 17.5 100290 81
2003-06-30 07:17:54 51°16.77 2°52.97 5.9 76 17.5 100280 82
2003-06-30 07:18:00 51°16.79 2°52.94 7 79 17.5 100280 82
2003-06-30 07:18:04 51°16.8 2°52.93 6.7 78 17.5 100290 81
2003-06-30 07:18:10 51°16.82 2°52.91 6.7 73 17.5 100290 81
2003-06-30 07:18:14 51°16.83 2°52.89 6.5 71 17.4 100290 81
2003-06-30 07:18:20 51°16.85 2°52.87 6.4 71 17.4 100290 81
2003-06-30 07:18:24 51°16.86 2°52.86 6.3 73 17.5 100290 81
2003-06-30 07:18:30 51°16.87 2°52.84 6.3 80 17.5 100290 81
2003-06-30 07:18:36 51°16.89 2°52.82 6.3 75 17.5 100290 81
2003-06-30 07:18:40 51°16.9 2°52.8 6.7 78 17.5 100290 81
2003-06-30 07:18:44 51°16.91 2°52.79 6.7 74 17.5 100280 82
2003-06-30 07:18:50 51°16.93 2°52.77 7.3 80 17.5 100280 82
2003-06-30 07:18:54 51°16.94 2°52.75 7.6 79 17.4 100290 81
2003-06-30 07:19:00 51°16.96 2°52.73 7 70 17.4 100290 81
2003-06-30 07:19:04 51°16.97 2°52.72 7.4 71 17.5 100280 82
2003-06-30 07:19:10 51°16.99 2°52.7 6.9 72 17.5 100280 82
2003-06-30 07:19:16 51°17 2°52.68 6.9 79 17.5 100280 81
2003-06-30 07:19:20 51°17.02 2°52.66 7.2 81 17.5 100280 81
2003-06-30 07:19:24 51°17.03 2°52.65 6.8 77 17.5 100280 82
2003-06-30 07:19:30 51°17.04 2°52.62 6.8 77 17.5 100280 82
2003-06-30 07:19:34 51°17.06 2°52.61 6.7 73 17.5 100280 82
2003-06-30 07:19:40 51°17.07 2°52.59 7.5 80 17.5 100280 82
2003-06-30 07:19:44 51°17.08 2°52.57 6.8 80 17.5 100280 81
2003-06-30 07:19:50 51°17.1 2°52.55 7.1 77 17.5 100280 81
2003-06-30 07:19:56 51°17.12 2°52.53 7.3 77 17.5 100270 81
2003-06-30 07:20:00 51°17.13 2°52.51 6.8 70 17.5 100270 81
2003-06-30 07:20:04 51°17.14 2°52.5 6.8 73 17.5 100270 81
2003-06-30 07:20:10 51°17.16 2°52.48 5.5 76 17.5 100270 81
2003-06-30 07:20:16 51°17.18 2°52.46 6.5 76 17.5 100270 81
2003-06-30 07:20:20 51°17.19 2°52.44 6.9 78 17.5 100270 81
2003-06-30 07:20:24 51°17.2 2°52.43 7.3 78 17.5 100280 81
2003-06-30 07:20:30 51°17.22 2°52.4 7.2 82 17.5 100280 81
2003-06-30 07:20:34 51°17.23 2°52.39 7.2 77 17.5 100270 81
2003-06-30 07:20:40 51°17.24 2°52.36 7.4 78 17.5 100270 81
2003-06-30 07:20:44 51°17.26 2°52.35 7.2 78 17.5 100270 81
2003-06-30 07:20:50 51°17.27 2°52.33 7.2 79 17.5 100270 81
2003-06-30 07:20:56 51°17.29 2°52.3 7.1 82 17.5 100270 81
2003-06-30 07:21:00 51°17.3 2°52.29 7.8 67 17.5 100270 81
2003-06-30 07:21:04 51°17.31 2°52.28 7.3 74 17.5 100270 81
2003-06-30 07:21:10 51°17.33 2°52.25 8.3 80 17.5 100270 81
2003-06-30 07:21:14 51°17.34 2°52.24 8.5 80 17.5 100260 81
2003-06-30 07:21:20 51°17.36 2°52.22 6.9 80 17.5 100260 81
2003-06-30 07:21:24 51°17.37 2°52.2 7.4 79 17.6 100260 81
2003-06-30 07:21:30 51°17.39 2°52.18 8 80 17.6 100260 81
2003-06-30 07:21:36 51°17.41 2°52.16 7.8 79 17.6 100260 81
2003-06-30 07:21:40 51°17.42 2°52.14 8.6 82 17.6 100260 81
2003-06-30 07:21:44 51°17.43 2°52.12 8.1 82 17.6 100260 81
2003-06-30 07:21:50 51°17.45 2°52.1 6.8 80 17.6 100260 81
2003-06-30 07:21:56 51°17.46 2°52.08 6.4 71 17.6 100260 81
2003-06-30 07:22:00 51°17.48 2°52.06 7.8 81 17.6 100260 81
2003-06-30 07:22:04 51°17.49 2°52.05 7.7 79 17.6 100260 81
2003-06-30 07:22:10 51°17.5 2°52.03 7.8 79 17.6 100260 81
2003-06-30 07:22:16 51°17.52 2°52.01 8.6 84 17.6 100260 81
2003-06-30 07:22:20 51°17.53 2°51.99 8.5 80 17.6 100260 81
2003-06-30 07:22:24 51°17.54 2°51.98 7.7 80 17.6 100260 81
2003-06-30 07:22:30 51°17.56 2°51.95 7.7 80 17.6 100260 81
2003-06-30 07:22:36 51°17.58 2°51.93 7.4 79 17.6 100250 81
2003-06-30 07:22:40 51°17.59 2°51.92 6.1 75 17.6 100250 81
2003-06-30 07:22:44 51°17.6 2°51.9 7.8 81 17.6 100250 81
2003-06-30 07:22:50 51°17.62 2°51.88 9.4 83 17.6 100250 81
2003-06-30 07:22:54 51°17.63 2°51.86 9.4 82 17.6 100250 81
2003-06-30 07:23:00 51°17.65 2°51.84 7.8 81 17.6 100250 81
2003-06-30 07:23:04 51°17.66 2°51.82 6.8 78 17.6 100250 81
2003-06-30 07:23:10 51°17.68 2°51.8 7.2 72 17.6 100250 81
2003-06-30 07:23:16 51°17.69 2°51.78 6.9 69 17.6 100240 81
2003-06-30 07:23:20 51°17.7 2°51.77 8 80 17.6 100240 81
2003-06-30 07:23:24 51°17.72 2°51.75 7.8 79 17.6 100240 80
2003-06-30 07:23:30 51°17.73 2°51.73 7.1 72 17.6 100240 80
2003-06-30 07:23:34 51°17.74 2°51.71 6.8 73 17.6 100250 80
2003-06-30 07:23:40 51°17.76 2°51.69 7.7 77 17.6 100250 80
2003-06-30 07:23:44 51°17.77 2°51.68 7.4 80 17.6 100240 80
2003-06-30 07:23:50 51°17.79 2°51.65 8.4 81 17.6 100240 80
2003-06-30 07:23:56 51°17.81 2°51.63 7.2 78 17.6 100240 81
2003-06-30 07:24:00 51°17.82 2°51.62 8.7 81 17.6 100240 81
2003-06-30 07:24:04 51°17.83 2°51.6 9.4 80 17.6 100240 81
2003-06-30 07:24:10 51°17.85 2°51.58 8.6 80 17.6 100240 81
2003-06-30 07:24:16 51°17.86 2°51.56 8 78 17.7 100240 81
2003-06-30 07:24:20 51°17.88 2°51.54 7.9 75 17.7 100240 81
2003-06-30 07:24:24 51°17.89 2°51.53 8.1 77 17.7 100230 80
2003-06-30 07:24:30 51°17.9 2°51.51 9.4 86 17.7 100230 80
2003-06-30 07:24:36 51°17.92 2°51.48 8.3 80 17.7 100230 81
2003-06-30 07:24:40 51°17.93 2°51.47 8.8 80 17.7 100230 81
2003-06-30 07:24:44 51°17.94 2°51.45 7.6 77 17.7 100230 81
2003-06-30 07:24:50 51°17.96 2°51.43 9 77 17.7 100230 81
2003-06-30 07:24:56 51°17.98 2°51.41 8 71 17.7 100230 81
2003-06-30 07:25:00 51°17.99 2°51.39 8.3 74 17.7 100230 81
2003-06-30 07:25:04 51°18 2°51.38 8.7 77 17.7 100230 80
2003-06-30 07:25:10 51°18.02 2°51.35 9.9 82 17.7 100230 80
2003-06-30 07:25:16 51°18.04 2°51.33 8 75 17.7 100220 81
2003-06-30 07:25:20 51°18.05 2°51.31 8.4 78 17.7 100220 81
2003-06-30 07:25:24 51°18.06 2°51.3 8.3 80 17.7 100230 81
2003-06-30 07:25:30 51°18.08 2°51.27 9.6 81 17.7 100230 81
2003-06-30 07:25:36 51°18.1 2°51.25 9 81 17.7 100220 81
2003-06-30 07:25:40 51°18.11 2°51.24 7.8 77 17.7 100220 81
2003-06-30 07:25:44 51°18.12 2°51.22 8.9 81 17.7 100220 80
2003-06-30 07:25:50 51°18.13 2°51.2 9.4 81 17.7 100220 80
2003-06-30 07:25:54 51°18.14 2°51.18 8.4 79 17.7 100220 81
2003-06-30 07:26:00 51°18.16 2°51.16 10.6 83 17.7 100220 81
2003-06-30 07:26:04 51°18.17 2°51.15 10.9 85 17.7 100220 81
2003-06-30 07:26:10 51°18.18 2°51.13 9.2 82 17.7 100220 81
2003-06-30 07:26:16 51°18.2 2°51.11 9.9 84 17.7 100220 81
2003-06-30 07:26:20 51°18.21 2°51.1 7.7 81 17.7 100220 81
2003-06-30 07:26:24 51°18.22 2°51.08 10.5 84 17.7 100220 81
2003-06-30 07:26:30 51°18.23 2°51.06 10.4 89 17.7 100220 81
2003-06-30 07:26:36 51°18.25 2°51.04 10.3 89 17.7 100220 81
2003-06-30 07:26:40 51°18.26 2°51.03 9.2 83 17.7 100220 81
2003-06-30 07:26:44 51°18.26 2°51.01 10.1 89 17.7 100220 81
2003-06-30 07:26:50 51°18.28 2°50.99 9.9 88 17.7 100220 81
2003-06-30 07:26:56 51°18.29 2°50.97 9.6 83 17.7 100210 80
2003-06-30 07:27:00 51°18.3 2°50.96 10.2 90 17.7 100210 80
2003-06-30 07:27:04 51°18.31 2°50.95 10.3 84 17.7 100220 81
2003-06-30 07:27:10 51°18.33 2°50.93 8.5 81 17.7 100220 81
2003-06-30 07:27:16 51°18.34 2°50.91 8.1 81 17.7 100220 81
2003-06-30 07:27:20 51°18.35 2°50.9 8 81 17.7 100220 81
2003-06-30 07:27:24 51°18.36 2°50.89 8.4 80 17.7 100220 81
2003-06-30 07:27:30 51°18.37 2°50.87 8.5 81 17.7 100220 81
2003-06-30 07:27:34 51°18.38 2°50.86 7.3 79 17.8 100220 81
2003-06-30 07:27:40 51°18.4 2°50.85 8.2 78 17.8 100220 81
2003-06-30 07:27:44 51°18.4 2°50.85 7.2 77 17.7 100210 81
2003-06-30 07:27:50 51°18.41 2°50.84 9.3 82 17.7 100210 81
2003-06-30 07:27:56 51°18.43 2°50.83 8.4 79 17.7 100210 80
2003-06-30 07:28:00 51°18.43 2°50.83 8.5 69 17.7 100210 80
2003-06-30 07:28:04 51°18.44 2°50.82 8.2 72 17.7 100210 80
2003-06-30 07:28:10 51°18.45 2°50.82 9.2 69 17.7 100210 80
2003-06-30 07:28:14 51°18.45 2°50.82 10.6 64 17.7 100210 80
2003-06-30 07:28:20 51°18.46 2°50.82 11.3 64 17.7 100210 80
2003-06-30 07:28:24 51°18.47 2°50.81 11.2 60 17.7 100210 81
2003-06-30 07:28:30 51°18.47 2°50.81 11.2 61 17.7 100210 81
2003-06-30 07:28:36 51°18.48 2°50.81 11.4 56 17.7 100210 81
2003-06-30 07:28:40 51°18.48 2°50.81 11.3 57 17.7 100210 81
2003-06-30 07:28:44 51°18.49 2°50.81 11.2 52 17.7 100200 81
2003-06-30 07:28:50 51°18.49 2°50.81 10.6 55 17.7 100200 81
2003-06-30 07:28:56 51°18.5 2°50.81 10.9 55 17.7 100200 80
2003-06-30 07:29:00 51°18.5 2°50.82 11.8 50 17.7 100200 80
2003-06-30 07:29:04 51°18.51 2°50.82 11.2 46 17.7 100200 80
2003-06-30 07:29:10 51°18.51 2°50.82 11.2 50 17.7 100200 80
2003-06-30 07:29:16 51°18.52 2°50.82 11.2 48 17.7 100200 80
2003-06-30 07:29:20 51°18.52 2°50.82 10.9 44 17.7 100200 80
2003-06-30 07:29:24 51°18.52 2°50.82 11.3 45 17.7 100200 80
2003-06-30 07:29:30 51°18.52 2°50.82 10.3 42 17.7 100200 80
2003-06-30 07:29:36 51°18.53 2°50.83 11.5 38 17.7 100200 80
2003-06-30 07:29:40 51°18.53 2°50.83 11.4 42 17.7 100200 80
2003-06-30 07:29:44 51°18.53 2°50.83 10.6 41 17.7 100200 80
2003-06-30 07:29:50 51°18.54 2°50.83 11.1 37 17.7 100200 80
2003-06-30 07:29:54 51°18.54 2°50.83 11.3 38 17.7 100200 80
2003-06-30 07:30:00 51°18.54 2°50.84 10.6 35 17.7 100200 80
2003-06-30 07:30:04 51°18.54 2°50.84 11 32 17.7 100210 80
2003-06-30 07:30:10 51°18.54 2°50.84 10.6 31 17.7 100210 80
2003-06-30 07:30:16 51°18.55 2°50.84 10.9 30 17.7 100210 80
2003-06-30 07:30:20 51°18.55 2°50.85 10.3 23 17.7 100210 80
2003-06-30 07:30:24 51°18.55 2°50.85 10.4 23 17.7 100210 80
2003-06-30 07:30:30 51°18.55 2°50.85 10.5 24 17.7 100210 80
2003-06-30 07:30:34 51°18.55 2°50.85 10.6 20 17.7 100210 80
2003-06-30 07:30:40 51°18.55 2°50.86 9.7 16 17.7 100210 80
2003-06-30 07:30:44 51°18.55 2°50.86 10 18 17.7 100210 80
2003-06-30 07:30:50 51°18.55 2°50.86 10 12 17.7 100210 80
2003-06-30 07:30:56 51°18.56 2°50.87 10.7 17 17.8 100220 80
2003-06-30 07:31:00 51°18.56 2°50.87 10.3 13 17.8 100220 80
2003-06-30 07:31:04 51°18.56 2°50.87 10.7 11 17.8 100210 80
2003-06-30 07:31:10 51°18.56 2°50.88 9.8 11 17.8 100210 80
2003-06-30 07:31:16 51°18.56 2°50.88 9.1 9 17.8 100220 80
2003-06-30 07:31:20 51°18.55 2°50.88 9.4 6 17.8 100220 80
2003-06-30 07:31:24 51°18.55 2°50.88 10 8 17.8 100220 80
2003-06-30 07:31:30 51°18.55 2°50.89 10.4 6 17.8 100220 80
2003-06-30 07:31:36 51°18.55 2°50.89 10.2 8 17.8 100220 80
2003-06-30 07:31:40 51°18.55 2°50.89 9.8 7 17.8 100220 80
2003-06-30 07:31:44 51°18.55 2°50.89 10.8 7 17.8 100220 80
2003-06-30 07:31:50 51°18.55 2°50.89 10.4 5 17.8 100220 80
2003-06-30 07:31:56 51°18.55 2°50.89 10.1 1 17.8 100220 79
2003-06-30 07:32:00 51°18.55 2°50.89 9.7 2 17.8 100220 79
2003-06-30 07:32:04 51°18.55 2°50.9 9.3 3 17.7 100210 79
2003-06-30 07:32:10 51°18.55 2°50.9 8.8 357 17.7 100210 79
2003-06-30 07:32:14 51°18.55 2°50.9 8.6 356 17.7 100220 79
2003-06-30 07:32:20 51°18.54 2°50.9 9.6 352 17.7 100220 79
2003-06-30 07:32:24 51°18.54 2°50.9 9.3 353 17.7 100220 79
2003-06-30 07:32:30 51°18.54 2°50.9 8.6 357 17.7 100220 79
2003-06-30 07:32:36 51°18.54 2°50.9 9.7 351 17.7 100230 79
2003-06-30 07:32:40 51°18.54 2°50.9 9.4 351 17.7 100230 79
2003-06-30 07:32:44 51°18.54 2°50.9 8.2 354 17.7 100220 79
2003-06-30 07:32:50 51°18.53 2°50.9 9 354 17.7 100220 79
2003-06-30 07:32:54 51°18.53 2°50.9 8.6 353 17.7 100220 79
2003-06-30 07:33:00 51°18.53 2°50.9 8.6 345 17.7 100220 79
2003-06-30 07:33:04 51°18.53 2°50.9 8.9 339 17.8 100220 79
2003-06-30 07:33:10 51°18.53 2°50.9 8.2 343 17.8 100220 79
2003-06-30 07:33:16 51°18.53 2°50.89 7.9 339 17.8 100220 80
2003-06-30 07:33:20 51°18.52 2°50.89 9.4 342 17.8 100220 80
2003-06-30 07:33:24 51°18.52 2°50.89 10.1 340 17.8 100230 79
2003-06-30 07:33:30 51°18.52 2°50.89 9.1 332 17.8 100230 79
2003-06-30 07:33:36 51°18.52 2°50.89 9.6 339 17.8 100220 80
2003-06-30 07:33:40 51°18.52 2°50.89 10.8 338 17.8 100220 80
2003-06-30 07:33:44 51°18.51 2°50.89 10.7 340 17.8 100230 80
2003-06-30 07:33:50 51°18.51 2°50.89 10.5 339 17.8 100230 80
2003-06-30 07:33:54 51°18.51 2°50.89 10.6 340 17.8 100220 79
2003-06-30 07:34:00 51°18.51 2°50.89 9.6 337 17.8 100220 79
2003-06-30 07:34:04 51°18.51 2°50.89 10.7 339 17.8 100220 79
2003-06-30 07:34:10 51°18.5 2°50.89 9.5 336 17.8 100220 79
2003-06-30 07:34:16 51°18.5 2°50.89 9.1 333 17.8 100230 79
2003-06-30 07:34:20 51°18.5 2°50.89 8.3 339 17.8 100230 79
2003-06-30 07:34:24 51°18.5 2°50.89 9 334 17.8 100220 79
2003-06-30 07:34:30 51°18.49 2°50.88 9.1 343 17.8 100220 79
2003-06-30 07:34:34 51°18.49 2°50.88 9.5 334 17.8 100220 79
2003-06-30 07:34:40 51°18.49 2°50.88 9 335 17.8 100220 79
2003-06-30 07:34:44 51°18.49 2°50.88 8.7 332 17.8 100230 79
2003-06-30 07:34:50 51°18.49 2°50.88 8.8 332 17.8 100230 79
2003-06-30 07:34:56 51°18.48 2°50.88 9.1 331 17.8 100230 79
2003-06-30 07:35:00 51°18.48 2°50.88 8.9 330 17.8 100230 79
2003-06-30 07:35:04 51°18.48 2°50.88 9.2 334 17.8 100220 79
2003-06-30 07:35:10 51°18.48 2°50.87 8.9 331 17.8 100220 79
2003-06-30 07:35:16 51°18.47 2°50.87 8.7 324 17.8 100230 79
2003-06-30 07:35:20 51°18.47 2°50.87 9.2 326 17.8 100230 79
2003-06-30 07:35:24 51°18.47 2°50.87 9.2 327 17.8 100230 79
2003-06-30 07:35:30 51°18.47 2°50.87 10.3 327 17.8 100230 79
2003-06-30 07:35:36 51°18.46 2°50.86 9.8 334 17.8 100230 79
2003-06-30 07:35:40 51°18.46 2°50.86 9 326 17.8 100230 79
2003-06-30 07:35:44 51°18.46 2°50.86 8.5 327 17.8 100230 79
2003-06-30 07:35:50 51°18.46 2°50.86 8.7 323 17.8 100230 79
2003-06-30 07:35:56 51°18.46 2°50.86 9.4 323 17.8 100230 79
2003-06-30 07:36:00 51°18.45 2°50.86 7.3 328 17.8 100230 79
2003-06-30 07:36:04 51°18.45 2°50.85 8.9 328 17.8 100230 79
2003-06-30 07:36:10 51°18.45 2°50.85 8.6 327 17.8 100230 79
2003-06-30 07:36:14 51°18.45 2°50.85 8.6 326 17.8 100230 79
2003-06-30 07:36:20 51°18.44 2°50.85 7.8 320 17.8 100230 79
2003-06-30 07:36:24 51°18.44 2°50.85 8 321 17.8 100240 79
2003-06-30 07:36:30 51°18.44 2°50.85 9.2 328 17.8 100240 79
2003-06-30 07:36:36 51°18.44 2°50.85 8.7 325 17.8 100240 79
2003-06-30 07:36:40 51°18.44 2°50.85 7.8 322 17.8 100240 79
2003-06-30 07:36:44 51°18.43 2°50.84 7.7 325 17.8 100240 79
2003-06-30 07:36:50 51°18.43 2°50.84 8.4 324 17.8 100240 79
2003-06-30 07:36:56 51°18.43 2°50.84 9.2 323 17.8 100240 80
2003-06-30 07:37:00 51°18.43 2°50.84 8.9 319 17.8 100240 80
2003-06-30 07:37:04 51°18.42 2°50.84 8.5 322 17.9 100240 80
2003-06-30 07:37:10 51°18.42 2°50.84 9.2 330 17.9 100240 80
2003-06-30 07:37:16 51°18.42 2°50.84 8.6 321 17.9 100250 80
2003-06-30 07:37:20 51°18.42 2°50.84 9.9 329 17.9 100250 80
2003-06-30 07:37:24 51°18.41 2°50.84 8.6 330 17.9 100250 79
2003-06-30 07:37:30 51°18.41 2°50.84 9.6 330 17.9 100250 79
2003-06-30 07:37:36 51°18.41 2°50.84 10.2 334 17.9 100240 80
2003-06-30 07:37:40 51°18.4 2°50.84 9.9 336 17.9 100240 80
2003-06-30 07:37:44 51°18.4 2°50.84 10.3 335 17.9 100250 80
2003-06-30 07:37:50 51°18.4 2°50.85 9.7 340 17.9 100250 80
2003-06-30 07:37:56 51°18.4 2°50.85 9.5 345 17.9 100240 80
2003-06-30 07:38:00 51°18.39 2°50.86 9.7 353 17.9 100240 80
2003-06-30 07:38:04 51°18.39 2°50.86 9.6 356 17.8 100240 79
2003-06-30 07:38:10 51°18.39 2°50.87 10.2 4 17.8 100240 79
2003-06-30 07:38:16 51°18.39 2°50.88 10.6 3 17.8 100240 79
2003-06-30 07:38:20 51°18.39 2°50.88 10.2 10 17.8 100240 79
2003-06-30 07:38:24 51°18.39 2°50.89 10.8 9 17.8 100240 79
2003-06-30 07:38:30 51°18.39 2°50.9 10.5 8 17.8 100240 79
2003-06-30 07:38:34 51°18.39 2°50.9 11.3 13 17.8 100240 79
2003-06-30 07:38:40 51°18.39 2°50.92 10.7 12 17.8 100240 79
2003-06-30 07:38:44 51°18.39 2°50.92 11.9 14 17.8 100240 79
2003-06-30 07:38:50 51°18.4 2°50.94 12.1 12 17.8 100240 79
2003-06-30 07:38:56 51°18.4 2°50.96 12.6 11 17.8 100250 79
2003-06-30 07:39:00 51°18.4 2°50.97 13.5 12 17.8 100250 79
2003-06-30 07:39:04 51°18.4 2°50.98 12.6 14 17.8 100250 79
2003-06-30 07:39:10 51°18.41 2°51 12.6 13 17.8 100250 79
2003-06-30 07:39:16 51°18.42 2°51.02 12.2 14 17.8 100250 79
2003-06-30 07:39:20 51°18.42 2°51.03 13.9 15 17.8 100250 79
2003-06-30 07:39:24 51°18.42 2°51.05 14 16 17.8 100250 79
2003-06-30 07:39:30 51°18.43 2°51.07 14.2 17 17.8 100250 79
2003-06-30 07:39:36 51°18.44 2°51.09 13.5 15 17.8 100240 79
2003-06-30 07:39:40 51°18.44 2°51.1 13.3 16 17.8 100240 79
2003-06-30 07:39:44 51°18.44 2°51.12 13.7 12 17.8 100230 79
2003-06-30 07:39:50 51°18.45 2°51.14 14.4 9 17.8 100230 79
2003-06-30 07:39:56 51°18.46 2°51.16 14.6 15 17.8 100240 79
2003-06-30 07:40:00 51°18.46 2°51.18 14.8 13 17.8 100240 79
2003-06-30 07:40:04 51°18.47 2°51.19 14.6 13 17.8 100240 79
2003-06-30 07:40:10 51°18.47 2°51.22 14.5 13 17.8 100240 79
2003-06-30 07:40:16 51°18.48 2°51.25 15 10 17.9 100250 79
2003-06-30 07:40:20 51°18.49 2°51.26 15.2 13 17.9 100250 79
2003-06-30 07:40:24 51°18.49 2°51.28 14.4 13 17.8 100240 79
2003-06-30 07:40:30 51°18.5 2°51.31 15.2 14 17.8 100240 79
2003-06-30 07:40:36 51°18.51 2°51.34 15 13 17.9 100240 79
2003-06-30 07:40:40 51°18.51 2°51.36 14.9 15 17.9 100240 79
2003-06-30 07:40:44 51°18.52 2°51.37 14.9 14 17.9 100240 79
2003-06-30 07:40:50 51°18.53 2°51.4 15.4 12 17.9 100240 79
2003-06-30 07:40:54 51°18.53 2°51.42 14.3 14 17.9 100240 79
2003-06-30 07:41:00 51°18.54 2°51.45 15.5 15 17.9 100240 79
2003-06-30 07:41:04 51°18.55 2°51.47 15.7 14 17.9 100240 79
2003-06-30 07:41:10 51°18.56 2°51.5 13.8 15 17.9 100240 79
2003-06-30 07:41:16 51°18.57 2°51.53 14.4 16 17.9 100240 79
2003-06-30 07:41:20 51°18.57 2°51.55 14.5 12 17.9 100240 79
2003-06-30 07:41:24 51°18.58 2°51.57 14.6 10 17.9 100240 79
2003-06-30 07:41:30 51°18.59 2°51.6 14.7 13 17.9 100240 79
2003-06-30 07:41:36 51°18.59 2°51.63 14.7 16 17.8 100240 79
2003-06-30 07:41:40 51°18.6 2°51.65 14.9 10 17.8 100240 79
2003-06-30 07:41:44 51°18.61 2°51.67 14.8 14 17.8 100250 79
2003-06-30 07:41:50 51°18.61 2°51.7 13.9 14 17.8 100250 79
2003-06-30 07:41:56 51°18.62 2°51.73 15.4 12 17.9 100240 79
2003-06-30 07:42:00 51°18.63 2°51.75 14.9 12 17.9 100240 79
2003-06-30 07:42:04 51°18.63 2°51.77 14.7 12 17.9 100240 79
2003-06-30 07:42:10 51°18.64 2°51.8 14.2 9 17.9 100240 79
2003-06-30 07:42:16 51°18.65 2°51.83 13.8 7 17.9 100250 79
2003-06-30 07:42:20 51°18.65 2°51.85 14.5 8 17.9 100250 79
2003-06-30 07:42:24 51°18.66 2°51.87 14.4 11 17.9 100250 79
2003-06-30 07:42:30 51°18.66 2°51.9 14.7 12 17.9 100250 79
2003-06-30 07:42:36 51°18.67 2°51.93 14.4 8 17.9 100260 79
2003-06-30 07:42:40 51°18.68 2°51.95 14.7 12 17.9 100260 79
2003-06-30 07:42:44 51°18.68 2°51.97 15.5 11 18 100250 80
2003-06-30 07:42:50 51°18.69 2°52 14.7 12 18 100250 80
2003-06-30 07:42:56 51°18.7 2°52.03 15.6 10 18 100260 79
2003-06-30 07:43:00 51°18.7 2°52.05 15.3 10 18 100260 79
2003-06-30 07:43:04 51°18.71 2°52.07 15.7 10 18 100260 79
2003-06-30 07:43:10 51°18.72 2°52.1 15 11 18 100260 79
2003-06-30 07:43:14 51°18.72 2°52.12 15.1 10 18 100250 79
2003-06-30 07:43:20 51°18.73 2°52.15 14.4 14 18 100250 79
2003-06-30 07:43:24 51°18.74 2°52.17 14.8 12 17.9 100240 79
2003-06-30 07:43:30 51°18.74 2°52.2 14.4 13 17.9 100240 79
2003-06-30 07:43:36 51°18.75 2°52.23 14.7 13 17.9 100260 79
2003-06-30 07:43:40 51°18.76 2°52.25 15.1 13 17.9 100260 79
2003-06-30 07:43:44 51°18.76 2°52.27 15.5 12 17.9 100250 79
2003-06-30 07:43:50 51°18.77 2°52.3 14.9 12 17.9 100250 79
2003-06-30 07:43:56 51°18.78 2°52.33 15 11 17.9 100260 79
2003-06-30 07:44:00 51°18.78 2°52.35 15.3 12 17.9 100260 79
2003-06-30 07:44:04 51°18.79 2°52.37 15.1 11 17.9 100260 79
2003-06-30 07:44:10 51°18.8 2°52.4 13.9 11 17.9 100260 79
2003-06-30 07:44:16 51°18.81 2°52.43 15.2 9 17.9 100250 79
2003-06-30 07:44:20 51°18.81 2°52.45 14.6 12 17.9 100250 79
2003-06-30 07:44:24 51°18.82 2°52.47 15 12 17.9 100250 79
2003-06-30 07:44:30 51°18.82 2°52.5 14.1 13 17.9 100250 79
2003-06-30 07:44:36 51°18.83 2°52.53 15 11 17.9 100260 79
2003-06-30 07:44:40 51°18.84 2°52.55 14.1 10 17.9 100260 79
2003-06-30 07:44:44 51°18.84 2°52.57 13.6 10 18 100260 79
2003-06-30 07:44:50 51°18.85 2°52.6 15.1 10 18 100260 79
2003-06-30 07:44:56 51°18.86 2°52.63 14.4 9 18 100260 79
2003-06-30 07:45:00 51°18.86 2°52.65 14.2 14 18 100260 79
2003-06-30 07:45:04 51°18.87 2°52.67 14.9 15 18 100260 79
2003-06-30 07:45:10 51°18.88 2°52.7 15.7 17 18 100260 79
2003-06-30 07:45:16 51°18.89 2°52.73 15.8 16 18 100260 79
2003-06-30 07:45:20 51°18.89 2°52.75 14.5 13 18 100260 79
2003-06-30 07:45:24 51°18.9 2°52.77 14.2 12 18 100270 79
2003-06-30 07:45:30 51°18.9 2°52.8 14.6 13 18 100270 79
2003-06-30 07:45:34 51°18.91 2°52.82 15 13 18 100260 79
2003-06-30 07:45:40 51°18.92 2°52.85 14.8 13 18 100260 79
2003-06-30 07:45:44 51°18.92 2°52.87 15.1 16 18 100260 78
2003-06-30 07:45:50 51°18.93 2°52.9 15.2 16 18 100260 78
2003-06-30 07:45:56 51°18.94 2°52.93 15.1 16 17.9 100260 78
2003-06-30 07:46:00 51°18.94 2°52.95 15 14 17.9 100260 78
2003-06-30 07:46:04 51°18.95 2°52.97 15.1 12 17.9 100260 78
2003-06-30 07:46:10 51°18.96 2°53 15.1 14 17.9 100260 78
2003-06-30 07:46:16 51°18.97 2°53.03 14.8 17 17.9 100270 78
2003-06-30 07:46:20 51°18.97 2°53.05 13.7 20 17.9 100270 78
2003-06-30 07:46:24 51°18.98 2°53.07 14.4 16 17.9 100270 78
2003-06-30 07:46:30 51°18.99 2°53.1 13.6 16 17.9 100270 78
2003-06-30 07:46:36 51°18.99 2°53.13 13.6 19 17.9 100270 78
2003-06-30 07:46:40 51°19 2°53.15 14.1 18 17.9 100270 78
2003-06-30 07:46:44 51°19 2°53.17 14.5 16 17.9 100270 78
2003-06-30 07:46:50 51°19.01 2°53.2 14.6 18 17.9 100270 78
2003-06-30 07:46:56 51°19.02 2°53.23 13.2 13 17.9 100280 78
2003-06-30 07:47:00 51°19.03 2°53.25 14.2 14 17.9 100280 78
2003-06-30 07:47:04 51°19.03 2°53.27 14 14 18 100270 78
2003-06-30 07:47:10 51°19.04 2°53.3 14.6 15 18 100270 78
2003-06-30 07:47:14 51°19.04 2°53.32 15 14 18 100280 78
2003-06-30 07:47:20 51°19.05 2°53.35 14.8 18 18 100280 78
2003-06-30 07:47:24 51°19.06 2°53.37 14.4 15 18 100280 78
2003-06-30 07:47:30 51°19.06 2°53.4 14.4 16 18 100280 78
2003-06-30 07:47:36 51°19.07 2°53.43 15.1 16 18 100280 78
2003-06-30 07:47:40 51°19.08 2°53.45 14.3 17 18 100280 78
2003-06-30 07:47:44 51°19.08 2°53.47 14.4 16 18 100270 78
2003-06-30 07:47:50 51°19.09 2°53.5 14 18 18 100270 78
2003-06-30 07:47:54 51°19.1 2°53.52 13.3 15 18 100280 78
2003-06-30 07:48:00 51°19.11 2°53.55 13.9 14 18 100280 78
2003-06-30 07:48:04 51°19.11 2°53.57 13.9 17 18 100280 78
2003-06-30 07:48:10 51°19.12 2°53.6 14.4 16 18 100280 78
2003-06-30 07:48:16 51°19.13 2°53.63 13.4 15 18 100280 78
2003-06-30 07:48:20 51°19.13 2°53.66 13.4 14 18 100280 78
2003-06-30 07:48:24 51°19.14 2°53.68 13.4 17 18.1 100280 78
2003-06-30 07:48:30 51°19.15 2°53.71 14.4 18 18.1 100280 78
2003-06-30 07:48:36 51°19.15 2°53.74 13.9 16 18.1 100290 79
2003-06-30 07:48:40 51°19.16 2°53.76 14.3 18 18.1 100290 79
2003-06-30 07:48:44 51°19.16 2°53.78 14.1 16 18.1 100290 79
2003-06-30 07:48:50 51°19.17 2°53.81 14.8 13 18.1 100290 79
2003-06-30 07:48:56 51°19.18 2°53.84 14.5 16 18.1 100280 78
2003-06-30 07:49:00 51°19.19 2°53.86 14.3 19 18.1 100280 78
2003-06-30 07:49:04 51°19.19 2°53.88 14 18 18.1 100290 78
2003-06-30 07:49:10 51°19.2 2°53.91 14.4 15 18.1 100290 78
2003-06-30 07:49:16 51°19.21 2°53.94 14.2 16 18.1 100290 78
2003-06-30 07:49:20 51°19.21 2°53.96 14 17 18.1 100290 78
2003-06-30 07:49:24 51°19.22 2°53.98 14.2 18 18.1 100290 78
2003-06-30 07:49:30 51°19.23 2°54.01 14 17 18.1 100290 78
2003-06-30 07:49:36 51°19.23 2°54.04 13.9 19 18.1 100290 78
2003-06-30 07:49:40 51°19.24 2°54.06 14 18 18.1 100290 78
2003-06-30 07:49:44 51°19.24 2°54.08 13.8 20 18.1 100290 78
2003-06-30 07:49:50 51°19.25 2°54.11 14.4 14 18.1 100290 78
2003-06-30 07:49:56 51°19.26 2°54.14 14.4 16 18.1 100290 78
2003-06-30 07:50:00 51°19.27 2°54.16 14.4 19 18.1 100290 78
2003-06-30 07:50:04 51°19.27 2°54.18 14 17 18.1 100290 78
2003-06-30 07:50:10 51°19.28 2°54.21 14 15 18.1 100290 78
2003-06-30 07:50:16 51°19.29 2°54.24 14.1 18 18.1 100290 78
2003-06-30 07:50:20 51°19.29 2°54.26 14.1 17 18.1 100290 78
2003-06-30 07:50:24 51°19.3 2°54.28 13.9 18 18.1 100290 78
2003-06-30 07:50:30 51°19.31 2°54.31 14.1 19 18.1 100290 78
2003-06-30 07:50:36 51°19.31 2°54.34 14.3 15 18.1 100290 78
2003-06-30 07:50:40 51°19.32 2°54.36 13.6 19 18.1 100290 78
2003-06-30 07:50:44 51°19.32 2°54.38 13.9 15 18.1 100290 77
2003-06-30 07:50:50 51°19.33 2°54.41 13.6 17 18.1 100290 77
2003-06-30 07:50:54 51°19.34 2°54.43 14.4 17 18.1 100290 78
2003-06-30 07:51:00 51°19.35 2°54.46 14.4 19 18.1 100290 78
2003-06-30 07:51:04 51°19.35 2°54.48 14.6 18 18.1 100290 78
2003-06-30 07:51:10 51°19.36 2°54.51 13.8 18 18.1 100290 78
2003-06-30 07:51:16 51°19.37 2°54.54 14.2 17 18.2 100290 78
2003-06-30 07:51:20 51°19.37 2°54.56 14.1 16 18.2 100290 78
2003-06-30 07:51:24 51°19.38 2°54.59 14.4 19 18.2 100290 77
2003-06-30 07:51:30 51°19.38 2°54.62 14.3 18 18.2 100290 77
2003-06-30 07:51:34 51°19.39 2°54.64 14.6 20 18.1 100290 77
2003-06-30 07:51:40 51°19.4 2°54.67 13.6 18 18.1 100290 77
2003-06-30 07:51:44 51°19.4 2°54.69 14.2 21 18.2 100290 78
2003-06-30 07:51:50 51°19.41 2°54.72 14.1 21 18.2 100290 78
2003-06-30 07:51:54 51°19.42 2°54.74 14 19 18.2 100300 77
2003-06-30 07:52:00 51°19.42 2°54.77 13.8 21 18.2 100300 77
2003-06-30 07:52:04 51°19.43 2°54.79 13.9 23 18.2 100290 77
2003-06-30 07:52:10 51°19.44 2°54.82 14.3 20 18.2 100290 77
2003-06-30 07:52:16 51°19.45 2°54.85 14.1 18 18.2 100300 77
2003-06-30 07:52:20 51°19.45 2°54.87 14.7 18 18.2 100300 77
2003-06-30 07:52:24 51°19.46 2°54.89 14.6 22 18.2 100300 77
2003-06-30 07:52:30 51°19.46 2°54.92 15 21 18.2 100300 77
2003-06-30 07:52:34 51°19.47 2°54.94 14.4 22 18.2 100300 77
2003-06-30 07:52:40 51°19.48 2°54.97 13.9 23 18.2 100300 77
2003-06-30 07:52:50 51°19.49 2°55.02 14.6 22 18.2 100300 76
2003-06-30 07:52:54 51°19.5 2°55.04 14.4 24 18.1 100300 76
2003-06-30 07:53:00 51°19.5 2°55.07 14.3 19 18.1 100300 76
2003-06-30 07:53:04 51°19.51 2°55.09 14 18 18.1 100300 76
2003-06-30 07:53:10 51°19.52 2°55.12 14.1 21 18.1 100300 76
2003-06-30 07:53:14 51°19.52 2°55.14 14.2 20 18.2 100300 76
2003-06-30 07:53:20 51°19.53 2°55.17 14.1 21 18.2 100300 76
2003-06-30 07:53:24 51°19.54 2°55.19 14 22 18.2 100300 77
2003-06-30 07:53:30 51°19.54 2°55.22 14.2 18 18.2 100300 77
2003-06-30 07:53:36 51°19.55 2°55.25 14.5 19 18.2 100300 76
2003-06-30 07:53:40 51°19.56 2°55.27 14.4 21 18.2 100300 76
2003-06-30 07:53:44 51°19.56 2°55.29 14.3 23 18.2 100300 76
2003-06-30 07:53:50 51°19.57 2°55.32 14.3 20 18.2 100300 76
2003-06-30 07:53:56 51°19.58 2°55.35 13.9 20 18.2 100310 76
2003-06-30 07:54:00 51°19.58 2°55.37 14.5 21 18.2 100310 76
2003-06-30 07:54:04 51°19.59 2°55.39 13.9 20 18.2 100310 76
2003-06-30 07:54:10 51°19.6 2°55.42 14.4 22 18.2 100310 76
2003-06-30 07:54:16 51°19.6 2°55.45 13.6 22 18.2 100300 76
2003-06-30 07:54:20 51°19.61 2°55.47 14.5 21 18.2 100300 76
2003-06-30 07:54:24 51°19.62 2°55.49 14.1 22 18.2 100310 76
2003-06-30 07:54:30 51°19.62 2°55.52 13.8 21 18.2 100310 76
2003-06-30 07:54:36 51°19.63 2°55.55 14 24 18.2 100310 75
2003-06-30 07:54:40 51°19.64 2°55.57 13.8 21 18.2 100310 75
2003-06-30 07:54:44 51°19.64 2°55.59 14 24 18.2 100310 76
2003-06-30 07:54:50 51°19.65 2°55.62 13.5 20 18.2 100310 76
2003-06-30 07:54:56 51°19.66 2°55.65 12.8 19 18.2 100310 75
2003-06-30 07:55:00 51°19.66 2°55.67 13.9 21 18.2 100310 75
2003-06-30 07:55:04 51°19.67 2°55.69 13.6 20 18.2 100310 76
2003-06-30 07:55:10 51°19.68 2°55.72 13.9 24 18.2 100310 76
2003-06-30 07:55:16 51°19.69 2°55.75 13.9 23 18.2 100310 76
2003-06-30 07:55:20 51°19.69 2°55.77 13.5 24 18.2 100310 76
2003-06-30 07:55:24 51°19.7 2°55.79 14.2 25 18.2 100310 76
2003-06-30 07:55:30 51°19.71 2°55.82 13.8 22 18.2 100310 76
2003-06-30 07:55:36 51°19.71 2°55.85 14 19 18.2 100310 76
2003-06-30 07:55:40 51°19.72 2°55.87 13.3 19 18.2 100310 76
2003-06-30 07:55:44 51°19.73 2°55.89 13.2 22 18.3 100310 76
2003-06-30 07:55:50 51°19.73 2°55.92 13.9 21 18.3 100310 76
2003-06-30 07:55:56 51°19.74 2°55.95 14.6 21 18.3 100310 76
2003-06-30 07:56:00 51°19.75 2°55.98 14.3 23 18.3 100310 76
2003-06-30 07:56:04 51°19.75 2°56 14.1 23 18.3 100320 76
2003-06-30 07:56:10 51°19.76 2°56.03 13.8 23 18.3 100320 76
2003-06-30 07:56:16 51°19.77 2°56.06 14 21 18.3 100320 76
2003-06-30 07:56:20 51°19.77 2°56.08 13.3 25 18.3 100320 76
2003-06-30 07:56:24 51°19.78 2°56.1 13.5 25 18.2 100310 76
2003-06-30 07:56:30 51°19.79 2°56.13 14.1 23 18.2 100310 76
2003-06-30 07:56:36 51°19.8 2°56.16 13.9 22 18.2 100310 76
2003-06-30 07:56:40 51°19.8 2°56.18 13.1 21 18.2 100310 76
2003-06-30 07:56:44 51°19.81 2°56.2 13.5 18 18.2 100320 76
2003-06-30 07:56:50 51°19.81 2°56.23 14.1 22 18.2 100320 76
2003-06-30 07:56:56 51°19.82 2°56.26 14.7 22 18.2 100310 76
2003-06-30 07:57:00 51°19.83 2°56.28 14.1 23 18.2 100310 76
2003-06-30 07:57:04 51°19.83 2°56.3 14.2 23 18.3 100320 77
2003-06-30 07:57:10 51°19.84 2°56.33 14.1 23 18.3 100320 77
2003-06-30 07:57:16 51°19.85 2°56.36 14.3 25 18.3 100320 77
2003-06-30 07:57:20 51°19.85 2°56.38 13.8 20 18.3 100320 77